Regional Weather Roundup
Issued by NWS Albany, NY

Home | Current Version | Previous Version | Text Only | Print | Product List | Glossary On
Versions: 1 2 3 4 5 6 7 8 9 10 11 12 13 14 15 16 17 18 19 20 21 22 23 24 25 26 27 28 29 30 31 32 33 34 35 36 37 38 39 40 41 42 43 44 45 46 47 48 49 50
000
ASUS41 KALY 010710
RWRALY

NEW YORK STATE HOURLY WEATHER ROUNDUP
NATIONAL WEATHER SERVICE ALBANY NY
300 AM EDT WED OCT 01 2014

NOTE: "FAIR" INDICATES FEW OR NO CLOUDS BELOW 12,000 FEET WITH NO
SIGNIFICANT WEATHER AND/OR NO OBSTRUCTIONS TO VISIBILITY.

NYZ032-033-038>043-046>054-057>066-NYZ062>081-010800-
EAST


CITY           SKY/WX    TMP DP  RH WIND       PRES   REMARKS
ALBANY         CLOUDY    60  56  86 CALM      30.03S
GLENS FALLS    CLOUDY    60  56  86 CALM      30.04S
POUGHKEEPSIE   CLOUDY    58  55  90 NE3       30.00F
NEWBURGH       MOCLDY    57  55  94 CALM      30.02S
MONTGOMERY     MOCLDY    56  54  93 CALM      30.01F
WHITE PLAINS   LGT RAIN  59  56  89 NE3       29.99S
ISLIP          CLOUDY    61  57  87 N7        29.95F
NEW YORK CITY  CLOUDY    62  59  90 NE10      29.98F
CENTRAL PARK   CLOUDY    63  57  81 VRB3      30.01F
$$

NYZ005>009-017-018-044>046-055-056-010800-
CENTRAL


CITY           SKY/WX    TMP DP  RH WIND       PRES   REMARKS
FULTON         CLEAR     58  56  93 CALM      29.99S
SYRACUSE       MOCLDY    59  56  89 E3        29.98S
ROME           CLEAR     57  55  93 S5        30.02S
ELMIRA         MOCLDY    59  59 100 E3        29.99S FOG
BINGHAMTON     CLOUDY    59  57  93 SE3       30.01R
MONTICELLO     CLOUDY    57  55  94 NE5       30.04S
$$

NYZ026>034-041>043-010800-
NORTH


CITY           SKY/WX    TMP DP  RH WIND       PRES   REMARKS
WATERTOWN      CLEAR     54  49  83 NE9       30.01S HAZE
FORT DRUM      NOT AVBL
MASSENA        CLOUDY    54  52  93 E12       30.08S
SARANAC LAKE   FOG       50  50 100 CALM      30.04F VSB 1/4
PLATTSBURGH    CLOUDY    53  51  93 N7        30.07S
$$

NYZ001>004-010>016-019>021-010800-
WEST


CITY           SKY/WX    TMP DP  RH WIND       PRES   REMARKS
NIAGARA FALLS  CLOUDY    58  56  93 NE10      30.00S FOG
BUFFALO        CLOUDY    59  56  89 NE9       30.00R
DUNKIRK        CLOUDY    60  59  96 NE7       29.99R FOG
JAMESTOWN      CLOUDY    55  54  94 N5        30.01R VSB<1/4
WELLSVILLE     CLOUDY    57  55  93 CALM      30.01F
ROCHESTER      CLOUDY    61  58  90 NE6       30.00S
PENN YAN       CLOUDY    59  32  36 CALM      29.99F FOG
$$

             KEY
       WCI = WIND CHILL INDEX
       VSB = VISIBILITY
       HX  = HEAT INDEX
$$


USA.gov is the U.S. government's official web portal to all federal, state and local government web resources and services.